Regional Weather Roundup
Issued by NWS Mobile, AL

Home | Current Version | Previous Version | Text Only | Print | Product List | Glossary On
Versions: 1 2 3 4 5 6 7 8 9 10 11 12 13 14 15 16 17 18 19 20 21 22 23 24 25 26 27 28
000
ASUS44 KMOB 260310
RWRMOB
REGIONAL WEATHER ROUNDUP
NATIONAL WEATHER SERVICE MOBILE AL
1000 PM CDT SAT OCT 25 2014

NOTE: "FAIR" INDICATES FEW OR NO CLOUDS BELOW 12,000 FEET WITH NO
      SIGNIFICANT WEATHER AND/OR OBSTRUCTIONS TO VISIBILITY.

  * THESE STATIONS ARE PART OF THE UNIVERSITY OF SOUTH ALABAMA
    MESONET AND ARE NOT UNDER NWS OR FAA QUALITY CONTROL.

ALZ061>064-260400-
COASTAL ALABAMA

CITY           SKY/WX    TMP DP  RH WIND       PRES   REMARKS
MOBILE REG APT CLEAR     58  57  97 W3        30.09R
BROOKLEY FIELD CLEAR     59  57  93 CALM      30.09S
USA CAMPUS*      N/A     59  55  88 CALM      30.09R
DOG RIVER*     NOT AVBL


CITY           SKY/WX    TMP DP  RH WIND       PRES   REMARKS
MOUNT VERNON*  NOT AVBL
SARALAND*      NOT AVBL
BAY MINETTE*   NOT AVBL
LOXLEY*          N/A     57  55  94 CALM      30.08S
ROBERTSDALE*     N/A     57  55  94 CALM      30.07S
FAIRHOPE*        N/A     57  55  94 CALM      30.07S
ELBERTA*         N/A     57  55  94 CALM      30.07R
FOLEY*           N/A     54  52  94 CALM      30.05R
GRAND BAY*       N/A     57  57 100 CALM      30.06S
DAUPHIN ISLND* NOT AVBL
BON SCOUR NWR* NOT AVBL
GULF SHORES    CLEAR     58  54  89 CALM      30.07S

$$

ALZ051>060-260400-
INTERIOR SOUTHWEST AND SOUTH CENTRAL ALABAMA

CITY           SKY/WX    TMP DP  RH WIND       PRES   REMARKS
GREENVILLE     CLEAR     57  52  83 CALM      30.07R
EVERGREEN      CLEAR     56  53  90 CALM      30.08R
CASTLEBERRY*   NOT AVBL
ATMORE*          N/A     59  55  88 CALM      30.09R
DIXIE*           N/A     61  54  77 CALM      30.05R
ANDALUSIA/OPP  CLEAR     60  51  72 CALM      30.07R
ANDALUSIA*       N/A     63  52  67 NW5       30.06S
FLORALA APT    CLEAR     54  49  83 CALM      30.08S
FLORALA*         N/A     54  52  94 CALM      30.05R

$$

FLZ001>006-260400-
WESTERN FLORIDA PANHANDLE

CITY           SKY/WX    TMP DP  RH WIND       PRES   REMARKS
PENSACOLA      CLEAR     62  52  69 CALM      30.06S
NAS PENSACOLA  CLEAR     55  51  86 NW3       30.07R
MILTON         CLEAR     56  51  84 NW5       30.07R
WHTNG S FIELD  CLEAR     58  52  80 NW3       30.07R


CITY           SKY/WX    TMP DP  RH WIND       PRES   REMARKS
WALNUT HILL*   NOT AVBL
JAY*             N/A     59  52  77 CALM      30.08R
DUKE FIELD     CLEAR     55  50  84 CALM      30.06R
CRESTVIEW      CLEAR     52  50  93 CALM      30.08R
VALPARAISO     CLEAR     58  49  74 N5        30.06R
DESTIN         CLEAR     66  55  67 N5        30.06R

$$

MSZ076-079-260400-
INTERIOR SOUTHEAST MISSISSIPPI

CITY           SKY/WX    TMP DP  RH WIND       PRES   REMARKS
LEAKESVILLE*     N/A     61  57  88 CALM      30.09R
AGRICOLA*      NOT AVBL

$$

MARINE OBSERVATIONS

STATION/POSITION TIME  TEMP    WIND        PRES    WAVE
                       AIR SEA DIR/SP/G            HT/PER
                 (UTC) (F)     (DEG/KT/KT) (MB)    (FT/S)
PASCAGOULA       0300   67     320/  2/  3 1018.2S
PETIT BOIS ISLND 0300   72     300/  8/ 10 1018.6S
GRAND BAY        0200   66     290/  4     1019.0S
KATRINA CUT      0200   72     250/  5     1018.6S
CEDAR POINT      0200   72     290/  4     1018.3S
E DAUPHIN ISLAND 0200   70     290/  5/  6 1018.3R
MIDDLE BAY LIGHT 0200   71     310/  5     1018.0R
USCG MOBILE BAY  0300   66 73  270/  2/  3 1017.2R
STATE DOCKS      0300   67 75              1018.2S
MEAHER PARK      0200   65        CALM     1018.6R
WEEKS BAY        0200   59                   N/A
FORT MORGAN      0300   72     330/  7/  8 1017.9R
12 S ORANGE BCH  0300   76 78   20/ 10/ 12 1017.7R   1/ 2
PENSACOLA BAY    0300   68 71  320/  2/  3 1018.4R
64 S DAUPHIN ISL 0230   74 79  340/ 12/ 16 1019.0R   2/ 4
67 S FORT MORGAN 0200   73                 1018.3R

$$

SELECTED LOCATIONS ACROSS THE REGION

CITY           SKY/WX    TMP DP  RH WIND       PRES   REMARKS
NEW ORLEANS    CLEAR     65  55  70 W6        30.09S
GULFPORT       CLEAR     62  58  86 CALM      30.08R
PASCAGOULA AP  CLEAR     57  56  96 CALM      30.08S
PASCAGOULA*    NOT AVBL
HATTIESBURG    CLEAR     61  60  97 CALM      30.10R
LAUREL         CLEAR     61  55  82 CALM      30.11R
MERIDIAN       CLEAR     59  57  93 CALM      30.09R
JACKSON        CLEAR     61  59  93 CALM      30.09R
MONTGOMERY     CLEAR     60  53  77 CALM      30.07R
TROY           CLEAR     53  50  89 CALM      30.07S
KINSTON*       NOT AVBL
GENEVA*          N/A     55  50  82 CALM      30.08R
ASHFORD*         N/A     63  52  67 NW5       30.06S
DOTHAN         CLEAR     60  51  72 N6        30.08S
PANAMA CITY    CLEAR     56  51  84 CALM      30.04S

$$




USA.gov is the U.S. government's official web portal to all federal, state and local government web resources and services.